Orbital Elements at Epoch 2459200.5 (2020-Dec-17.0) TDB
Reference: JPL 19 (heliocentric ecliptic J2000)
Element | Value | Uncertainty (1-sigma) | Units |
e | .06264983305543867 | 4.2005e-08 | |
a | 2.563541111338612 | 1.6333e-08 | au |
q | 2.402935688682494 | 1.062e-07 | au |
i | 5.831334336945332 | 4.4837e-06 | deg |
node | 58.27933905224027 | 4.2115e-05 | deg |
peri | 105.3754564524034 | 5.5319e-05 | deg |
M | 167.8388806556378 | 3.6727e-05 | deg |
tp | 2458501.545459508747 (2019-Jan-18.04545951) | 0.00015078 | TDB |
period | 1499.197525590736 4.10 | 1.4327e-05 3.923e-08 | d yr |
n | .2401284646318686 | 2.2948e-09 | deg/d |
Q | 2.72414653399473 | 1.7356e-08 | au |
|
| | Orbit Determination Parameters
Additional Information
|